Miscellaneous Local Product
Issued by NWS Hastings, NE

Home | Current Version | Previous Version | Graphics & Text | Print | Product List | Glossary On
Versions: 1 2 3 4 5 6 7 8 9 10 11 12 13 14 15 16 17 18 19 20 21 22 23 24 25 26 27 28 29 30 31 32 33 34 35 36 37 38 39 40 41 42 43 44 45 46 47 48 49 50
000
AXUS43 KGID 042102
MISGRI

GID CWA HOURLY WEATHER ROUNDUP
NATIONAL WEATHER SERVICE HASTINGS NE
400 PM CDT MON MAY 04 2015

NOTE: "FAIR" INDICATES FEW OR NO CLOUDS BELOW 12,000 FEET WITH NO
SIGNIFICANT WEATHER AND/OR OBSTRUCTIONS TO VISIBILITY.

...SOUTH CENTRAL NEBRASKA...

CITY           SKY/WX    TMP DP  RH WIND       PRES   REMARKS
GRAND ISLAND   CLOUDY    54  51  90 NE9       30.11S
HASTINGS       CLOUDY    56  51  84 NE17      30.08F
KEARNEY        CLOUDY    54  46  76 NE15      30.11F
ORD            LGT RAIN  59  42  53 E10       30.12R
YORK           RAIN      54  54 100 NE15      30.09F
AURORA         CLOUDY    55  52  90 NE17      30.10S
LEXINGTON      DRIZZLE   51  48  89 NE15      30.12F
HOLDREGE       CLOUDY    55  48  77 NE12      30.10S
HEBRON         LGT RAIN  65  55  70 NE13      30.05F

...NEBRASKA PANHANDLE...

CITY           SKY/WX    TMP DP  RH WIND       PRES   REMARKS
CHADRON        LGT RAIN  52  40  63 E12       30.15F
ALLIANCE       CLOUDY    60  35  39 E14G23    30.12F
SCOTTSBLUFF    CLOUDY    60  38  43 SE12      30.11F
SIDNEY         PTSUNNY   60  40  47 SE12      30.12F

...WESTERN AND NORTH CENTRAL NEBRASKA...

CITY           SKY/WX    TMP DP  RH WIND       PRES   REMARKS
VALENTINE      CLOUDY    65  23  20 NE16      30.14F
AINSWORTH      CLOUDY    69  26  19 E13G18    30.13S
ONEILL         CLOUDY    66  33  28 E12       30.14S
BROKEN BOW     LGT RAIN  53  48  83 CALM      30.14R
IMPERIAL       CLOUDY    51  46  83 NE15      30.13S
NORTH PLATTE   LGT RAIN  50  44  80 E14       30.14S
MCCOOK         CLOUDY    58  43  57 NE14      30.10F

...EASTERN NEBRASKA...

CITY           SKY/WX    TMP DP  RH WIND       PRES   REMARKS
NORFOLK        LGT RAIN  60  48  64 E10G18    30.13S
SO SIOUX CITY  CLOUDY    66  43  43 E15       30.13F
TEKAMAH        LGT RAIN  61  55  81 N6        30.12R
COLUMBUS       CLOUDY    57  48  72 NE14      30.12F
ALBION         LGT RAIN  57  47  71 E12       30.13F
OMAHA EPPLEY   CLOUDY    65  60  84 N8        30.08F
OFFUTT AFB     CLOUDY    66  60  81 N6        30.07S
MILLARD        LGT RAIN  65  59  79 N3        30.08S
LINCOLN        LGT RAIN  59  55  87 N14       30.08F FOG
NEBRASKA CITY  CLOUDY    64  62  92 NE12      30.04F
BEATRICE       LGT RAIN  64  60  86 NE14G20   30.04F
FALLS CITY     CLOUDY    70  62  76 NE10      30.00F

...NORTHERN KANSAS...

CITY           SKY/WX    TMP DP  RH WIND       PRES   REMARKS
GOODLAND       PTSUNNY   64  47  53 NE13      30.07F
HILL CITY      PTSUNNY   72  56  57 VRB5      30.04F
NORTON         PTCLDY    66  46  48 N8        30.06F
PHILLIPSBURG   PTSUNNY   70  55  60 N9        30.05F
SMITH CENTER   CLOUDY    64  55  72 N13       30.03F
HAYS           PTSUNNY   75  55  50 N12       29.99F
RUSSELL        PTSUNNY   73  58  59 N12G18    29.98F
CONCORDIA      CLOUDY    71  60  68 N12       29.99F
SALINA         CLOUDY    79  64  60 S12       29.95F
TOPEKA         PTSUNNY   84  58  40 S15G24    29.96F



USA.gov is the U.S. government's official web portal to all federal, state and local government web resources and services.